When you browse on this site, cookies collect data to enhance your experience and personalize the content and advertising you see.
Visit our Privacy Policy to learn more. By continuing to use the site, you agree to this use of cookies and data.
  • In Germany
  • List of Countries
  • For 7 days
  • Water Temperature
  • Weather Map
  • Weather Widgets
  • user-avatar
    Login

    Hourly Weather Salzburg

    Today, 22 August, Thursday

    Time Temperature Precipitation Wind Pressure Humidity
    00:00 +8°C° 0.1 mm 0 mps 632 mmHg 97%
    01:00 +7°C° 0.1 mm 0 mps 632 mmHg 96%
    02:00 +8°C° 0 mm 0 mps 632 mmHg 96%
    03:00 +8°C° 0 mm 0 mps 632 mmHg 96%
    04:00 +8°C° 0 mm 0 mps 631 mmHg 96%
    05:00 +8°C° 0 mm 0 mps 632 mmHg 95%
    06:00 +9°C° 0 mm 0 mps 632 mmHg 94%
    07:00 +10°C° 0 mm 0 mps 632 mmHg 93%
    08:00 +12°C° 0.1 mm 0 mps 633 mmHg 86%
    09:00 +14°C° 0.1 mm 1 mps 634 mmHg 79%
    10:00 +16°C° 0.1 mm 1 mps 634 mmHg 72%
    11:00 +18°C° 0.4 mm 1 mps 634 mmHg 71%
    12:00 +19°C° 0.4 mm 1 mps 635 mmHg 69%
    13:00 +20°C° 0.4 mm 1 mps 635 mmHg 68%
    14:00 +19°C° 0.8 mm 1 mps 634 mmHg 73%
    15:00 +18°C° 0.8 mm 1 mps 634 mmHg 77%
    16:00 +16°C° 0.8 mm 1 mps 633 mmHg 82%
    17:00 +15°C° 0.4 mm 1 mps 633 mmHg 86%
    18:00 +14°C° 0.4 mm 1 mps 633 mmHg 91%
    19:00 +12°C° 0.4 mm 0 mps 633 mmHg 95%
    20:00 +11°C° 0.1 mm 0 mps 633 mmHg 95%
    21:00 +10°C° 0.1 mm 0 mps 633 mmHg 95%
    22:00 +10°C° 0.1 mm 0 mps 633 mmHg 95%
    23:00 +9°C° 0 mm 0 mps 633 mmHg 95%

    Tomorrow, 23 August, Friday

    Time Temperature Precipitation Wind Pressure Humidity
    00:00 +9°C° 0 mm 0 mps 632 mmHg 95%
    01:00 +9°C° 0 mm 0 mps 632 mmHg 95%
    02:00 +9°C° 0 mm 0 mps 632 mmHg 95%
    03:00 +9°C° 0 mm 0 mps 632 mmHg 95%
    04:00 +9°C° 0 mm 0 mps 632 mmHg 95%
    05:00 +10°C° 0 mm 0 mps 632 mmHg 93%
    06:00 +10°C° 0 mm 0 mps 633 mmHg 92%
    07:00 +11°C° 0 mm 0 mps 633 mmHg 90%
    08:00 +13°C° 0 mm 0 mps 634 mmHg 82%
    09:00 +16°C° 0 mm 1 mps 634 mmHg 74%
    10:00 +19°C° 0 mm 1 mps 635 mmHg 66%
    11:00 +20°C° 0.3 mm 1 mps 635 mmHg 66%
    12:00 +20°C° 0.3 mm 1 mps 635 mmHg 66%
    13:00 +21°C° 0.3 mm 1 mps 635 mmHg 66%
    14:00 +20°C° 0.8 mm 1 mps 634 mmHg 72%
    15:00 +19°C° 0.8 mm 1 mps 633 mmHg 78%
    16:00 +18°C° 0.8 mm 1 mps 633 mmHg 84%
    17:00 +16°C° 0.4 mm 1 mps 632 mmHg 87%
    18:00 +15°C° 0.4 mm 1 mps 632 mmHg 89%
    19:00 +14°C° 0.4 mm 1 mps 632 mmHg 91%
    20:00 +13°C° 0 mm 1 mps 632 mmHg 91%
    21:00 +13°C° 0 mm 1 mps 632 mmHg 91%
    22:00 +12°C° 0 mm 1 mps 631 mmHg 91%
    23:00 +12°C° 0 mm 1 mps 631 mmHg 90%

    Day after tomorrow, 24 August, Saturday

    Time Temperature Precipitation Wind Pressure Humidity
    00:00 +12°C° 0 mm 1 mps 631 mmHg 90%
    01:00 +10°C° 0 mm 2 mps 631 mmHg 89%
    02:00 +10°C° 0 mm 2 mps 630 mmHg 89%
    03:00 +10°C° 0 mm 2 mps 630 mmHg 88%
    04:00 +10°C° 0 mm 2 mps 630 mmHg 88%
    05:00 +12°C° 0 mm 1 mps 630 mmHg 86%
    06:00 +12°C° 0 mm 1 mps 631 mmHg 85%
    07:00 +13°C° 0 mm 1 mps 631 mmHg 83%
    08:00 +16°C° 0 mm 1 mps 632 mmHg 75%
    09:00 +19°C° 0 mm 1 mps 633 mmHg 66%
    10:00 +19°C° 0 mm 0 mps 633 mmHg 58%
    11:00 +22°C° 0.1 mm 1 mps 633 mmHg 56%
    12:00 +22°C° 0.1 mm 1 mps 633 mmHg 55%
    13:00 +23°C° 0.1 mm 1 mps 633 mmHg 53%
    14:00 +22°C° 0.8 mm 1 mps 633 mmHg 62%
    15:00 +20°C° 0.8 mm 1 mps 632 mmHg 70%
    16:00 +19°C° 0.8 mm 1 mps 631 mmHg 79%
    17:00 +18°C° 0.6 mm 1 mps 631 mmHg 82%
    18:00 +15°C° 0.6 mm 1 mps 630 mmHg 86%
    19:00 +13°C° 0.6 mm 1 mps 630 mmHg 89%
    20:00 +13°C° 0.1 mm 1 mps 630 mmHg 89%
    21:00 +12°C° 0.1 mm 1 mps 630 mmHg 88%
    22:00 +12°C° 0.1 mm 2 mps 630 mmHg 87%
    23:00 +12°C° 0 mm 2 mps 629 mmHg 87%

    25 August, Sunday

    Time Temperature Precipitation Wind Pressure Humidity
    00:00 +10°C° 0 mm 2 mps 629 mmHg 87%
    01:00 +10°C° 0 mm 2 mps 629 mmHg 87%
    02:00 +10°C° 0 mm 2 mps 629 mmHg 86%
    03:00 +11°C° 0 mm 1 mps 629 mmHg 85%
    04:00 +11°C° 0 mm 1 mps 629 mmHg 84%
    05:00 +12°C° 0 mm 1 mps 629 mmHg 82%
    06:00 +13°C° 0 mm 1 mps 630 mmHg 80%
    07:00 +14°C° 0 mm 1 mps 630 mmHg 78%
    08:00 +16°C° 0 mm 1 mps 631 mmHg 71%
    09:00 +19°C° 0 mm 1 mps 632 mmHg 63%
    10:00 +19°C° 0 mm 0 mps 633 mmHg 55%
    11:00 +22°C° 0.2 mm 1 mps 633 mmHg 54%
    12:00 +22°C° 0.2 mm 1 mps 633 mmHg 53%
    13:00 +23°C° 0.2 mm 1 mps 633 mmHg 52%
    14:00 +22°C° 0.9 mm 1 mps 632 mmHg 60%
    15:00 +21°C° 0.9 mm 1 mps 632 mmHg 69%
    16:00 +20°C° 0.9 mm 1 mps 631 mmHg 77%
    17:00 +18°C° 1.3 mm 1 mps 631 mmHg 81%
    18:00 +16°C° 1.3 mm 1 mps 630 mmHg 86%
    19:00 +14°C° 1.3 mm 1 mps 630 mmHg 91%
    20:00 +14°C° 0.8 mm 1 mps 630 mmHg 91%
    21:00 +13°C° 0.8 mm 1 mps 630 mmHg 91%
    22:00 +13°C° 0.8 mm 1 mps 630 mmHg 92%
    23:00 +12°C° 0.1 mm 1 mps 630 mmHg 92%

    26 August, Monday

    Time Temperature Precipitation Wind Pressure Humidity
    00:00 +12°C° 0.1 mm 1 mps 630 mmHg 92%
    01:00 +11°C° 0.1 mm 1 mps 630 mmHg 92%
    02:00 +11°C° 0 mm 1 mps 630 mmHg 92%
    03:00 +11°C° 0 mm 1 mps 630 mmHg 92%
    04:00 +11°C° 0 mm 1 mps 630 mmHg 92%
    05:00 +12°C° 0 mm 1 mps 630 mmHg 91%
    06:00 +13°C° 0 mm 1 mps 631 mmHg 90%
    07:00 +12°C° 0 mm 0 mps 631 mmHg 89%
    08:00 +15°C° 0.1 mm 1 mps 632 mmHg 82%
    09:00 +18°C° 0.1 mm 1 mps 633 mmHg 74%
    10:00 +20°C° 0.1 mm 1 mps 633 mmHg 67%
    11:00 +20°C° 1 mm 1 mps 633 mmHg 70%
    12:00 +20°C° 1 mm 1 mps 633 mmHg 72%
    13:00 +20°C° 1 mm 1 mps 633 mmHg 74%
    14:00 +20°C° 1.4 mm 1 mps 633 mmHg 79%
    15:00 +19°C° 1.4 mm 1 mps 632 mmHg 84%
    16:00 +18°C° 1.4 mm 1 mps 632 mmHg 88%
    17:00 +16°C° 1.5 mm 1 mps 632 mmHg 89%
    18:00 +14°C° 1.5 mm 0 mps 632 mmHg 90%
    19:00 +13°C° 1.5 mm 0 mps 632 mmHg 91%
    20:00 +13°C° 0.2 mm 0 mps 632 mmHg 92%
    21:00 +12°C° 0.2 mm 0 mps 632 mmHg 93%
    22:00 +13°C° 0.2 mm 1 mps 632 mmHg 93%
    23:00 +12°C° 0.1 mm 1 mps 632 mmHg 93%

    27 August, Tuesday

    Time Temperature Precipitation Wind Pressure Humidity
    00:00 +12°C° 0.1 mm 1 mps 632 mmHg 94%
    01:00 +11°C° 0.1 mm 1 mps 631 mmHg 94%
    02:00 +11°C° 0 mm 1 mps 631 mmHg 94%
    03:00 +11°C° 0 mm 1 mps 631 mmHg 94%
    04:00 +11°C° 0 mm 1 mps 631 mmHg 94%
    05:00 +12°C° 0 mm 1 mps 631 mmHg 93%
    06:00 +12°C° 0 mm 1 mps 631 mmHg 91%
    07:00 +13°C° 0 mm 1 mps 632 mmHg 90%
    08:00 +16°C° 0 mm 1 mps 632 mmHg 80%
    09:00 +19°C° 0 mm 1 mps 633 mmHg 70%
    10:00 +22°C° 0 mm 1 mps 634 mmHg 60%
    11:00 +22°C° 0 mm 1 mps 634 mmHg 55%
    12:00 +23°C° 0 mm 1 mps 634 mmHg 51%
    13:00 +24°C° 0 mm 1 mps 634 mmHg 47%
    14:00 +24°C° 0.3 mm 1 mps 634 mmHg 51%
    15:00 +23°C° 0.3 mm 1 mps 633 mmHg 55%
    16:00 +23°C° 0.3 mm 1 mps 633 mmHg 58%
    17:00 +20°C° 0.3 mm 1 mps 632 mmHg 67%
    18:00 +18°C° 0.3 mm 1 mps 631 mmHg 77%
    19:00 +15°C° 0.3 mm 1 mps 630 mmHg 86%
    20:00 +14°C° 0 mm 2 mps 630 mmHg 87%
    21:00 +13°C° 0 mm 2 mps 630 mmHg 88%
    22:00 +13°C° 0 mm 2 mps 630 mmHg 89%
    23:00 +12°C° 0 mm 2 mps 630 mmHg 88%
    Show more